This is the latest recevied weather packets stored in our database for station/object SR9WXM. If no packets are shown the sender has not sent any weather packets the latest 1 day(s).
| Time | Temp. | Humidity | Pressure | Rain* | Wind** | Luminosity | Snow |
|---|---|---|---|---|---|---|---|
| 1778012634 | 13.89° C | 100% | 0 hPa | - | 5.81 m/s, 188° | - | - |
| 1778012394 | 13.89° C | 100% | 0 hPa | - | 6.26 m/s, 187° | - | - |
| 1778012154 | 13.89° C | 100% | 0 hPa | - | 6.26 m/s, 185° | - | - |
| 1778011913 | 13.89° C | 100% | 0 hPa | - | 6.71 m/s, 180° | - | - |
| 1778011674 | 13.89° C | 100% | 0 hPa | - | 6.71 m/s, 189° | - | - |
| 1778011432 | 13.89° C | 100% | 0 hPa | - | 6.71 m/s, 196° | - | - |
| 1778011192 | 13.89° C | 100% | 0 hPa | - | 6.26 m/s, 202° | - | - |
| 1778010952 | 14.44° C | 100% | 0 hPa | - | 5.36 m/s, 189° | - | - |
| 1778010712 | 14.44° C | 100% | 0 hPa | - | 6.26 m/s, 202° | - | - |
| 1778010472 | 14.44° C | 100% | 0 hPa | - | 5.81 m/s, 191° | - | - |
| 1778010230 | 14.44° C | 100% | 0 hPa | - | 6.26 m/s, 187° | - | - |
| 1778010001 | 14.44° C | 100% | 0 hPa | - | 5.36 m/s, 185° | - | - |
| 1778009750 | 14.44° C | 100% | 0 hPa | - | 7.6 m/s, 193° | - | - |
| 1778009508 | 14.44° C | 100% | 0 hPa | - | 4.92 m/s, 210° | - | - |
| 1778009268 | 14.44° C | 100% | 0 hPa | - | 5.81 m/s, 190° | - | - |
| 1778009017 | 14.44° C | 100% | 0 hPa | - | 5.36 m/s, 195° | - | - |
| 1778008776 | 14.44° C | 100% | 0 hPa | - | 5.36 m/s, 180° | - | - |
| 1778008536 | 14.44° C | 100% | 0 hPa | - | 4.92 m/s, 199° | - | - |
| 1778008296 | 14.44° C | 100% | 0 hPa | - | 5.36 m/s, 207° | - | - |
| 1778008056 | 14.44° C | 100% | 0 hPa | - | 6.26 m/s, 196° | - | - |
| 1778007814 | 14.44° C | 100% | 0 hPa | - | 4.92 m/s, 202° | - | - |
| 1778007574 | 14.44° C | 100% | 0 hPa | - | 4.92 m/s, 218° | - | - |
| 1778007333 | 14.44° C | 100% | 0 hPa | - | 4.47 m/s, 206° | - | - |
| 1778007093 | 14.44° C | 100% | 0 hPa | - | 4.92 m/s, 187° | - | - |
| 1778006853 | 14.44° C | 100% | 0 hPa | - | 4.47 m/s, 207° | - | - |
* Rain since midnight (hover to see other rain measurements)
** Current wind speed in m/s (hover to see current wind gust speed)